Regional Weather Roundup
Issued by NWS

Home | Current Version | Previous Version | Text Only | Print | Product List | Glossary On
Versions: 1 2 3 4 5 6 7 8 9 10 11 12 13 14 15 16 17 18 19 20 21 22 23 24 25 26 27 28 29 30 31 32 33 34 35 36 37 38 39 40 41 42 43 44 45 46 47 48 49 50
000
ASUS43 KMKX 301700
RWRWI

WISCONSIN REGIONAL WEATHER ROUNDUP
NATIONAL WEATHER SERVICE MILWAUKEE/SULLIVAN WI
1200 PM CDT TUE SEP 30 2014

NOTE: "FAIR" INDICATES FEW OR NO CLOUDS BELOW 12,000 FEET WITH NO
SIGNIFICANT WEATHER AND/OR OBSTRUCTIONS TO VISIBILITY.

WIZ001-002-006>008-014>016-023>028-301800-
NORTHWEST WISCONSIN

CITY           SKY/WX    TMP DP  RH WIND       PRES   REMARKS
SUPERIOR ARPT  CLOUDY    47  41  80 E7        30.11S
ASHLAND        CLOUDY    46  39  76 NE8       30.13F
HAYWARD        CLOUDY    46  39  76 VRB6      30.09F
SIREN          CLOUDY    44  38  79 E7        30.08F
CUMBERLAND     CLOUDY    43  37  81 E6        30.08F
RICE LAKE      CLOUDY    45  38  78 NE7       30.09F
CHETEK         CLOUDY    43  38  84 NE7       30.09F
LADYSMITH      CLOUDY    46  40  78 CALM      30.11F
EAU CLAIRE     NOT AVBL
MENOMONIE      CLOUDY    46  39  76 E7        30.08F
NEW RICHMOND   PTSUNNY   47  39  73 E8        30.05F
OSCEOLA        CLOUDY    47  40  79 E9        30.09F
$$

WIZ003>005-009-010-017-018-301800-
NORTH CENTRAL WISCONSIN

CITY           SKY/WX    TMP DP  RH WIND       PRES   REMARKS
MANITOWISH WTR CLOUDY    42  40  90 E7        30.10F
ARBOR VITAE    CLOUDY    43  39  85 NE5       30.10F
WOODRUFF       CLOUDY    43  39  85 NE5       30.10F
RHINELANDER    CLOUDY    43  38  82 VRB6      30.10F
EAGLE RIVER    CLOUDY    43  40  87 NE6       30.10S
LAND O LAKES   CLOUDY    43  40  88 NE7       30.11F
PHILLIPS       MOSUNNY   47  39  73 NE6       30.08F
TOMAHAWK       PTSUNNY   44  38  77 CALM      30.11S
MEDFORD        CLOUDY    45  39  79 E5        30.09S
MERRILL        PTSUNNY   45  39  81 E5        30.09F
$$

WIZ029-030-035-036-043>047-301800-
CENTRAL WISCONSIN

CITY           SKY/WX    TMP DP  RH WIND       PRES   REMARKS
WAUSAU         CLOUDY    47  40  76 NE5       30.08F
MOSINEE        NOT AVBL
MARSHFIELD     CLOUDY    46  39  76 E7        30.09F
STEVENS POINT  CLOUDY    42  38  83 NE7       30.10F
WAUPACA        CLOUDY    47  41  78 E5        30.11F
WAUTOMA        NOT AVBL
WISC RAPIDS    CLOUDY    47  39  74 VRB3      30.11S
CAMP DOUGLAS   NOT AVBL
$$

WIZ011>013-019>022-031-037>040-048>050-301800-
NORTHEAST WISCONSIN

CITY           SKY/WX    TMP DP  RH WIND       PRES   REMARKS
ANTIGO         CLOUDY    43  39  86 NE8       30.09F
SHAWANO        CLOUDY    47  40  78 NE6       30.11S
OCONTO         CLOUDY    46  41  81 N6        30.10S
STURGEON BAY   NOT AVBL
GREEN BAY      CLOUDY    48  41  76 N8        30.10S
MANITOWOC      NOT AVBL
APPLETON       CLOUDY    45  39  81 N8        30.10F
CLINTONVILLE   CLOUDY    45  37  76 NE5       30.11S
OSHKOSH        CLOUDY    47  41  80 VRB6      30.10R
$$

WIZ032>034-041-042-053>061-301800-
SOUTHWEST WISCONSIN

CITY           SKY/WX    TMP DP  RH WIND       PRES   REMARKS
LA CROSSE      CLOUDY    50  42  74 E5        30.08F
SPARTA         CLOUDY    46  40  79 NE10      30.09F
VIROQUA        CLOUDY    49  41  73 E5        30.06F
BOSCOBEL       CLOUDY    51  43  74 NE8       30.08F
PRAIRIE DU CHI CLOUDY    51  43  73 E6        30.06F
PLATTEVILLE    CLOUDY    49  44  81 E9        30.07F
$$

WIZ056-057-062-063-064-067-068-301800-
SOUTH CENTRAL WISCONSIN

CITY           SKY/WX    TMP DP  RH WIND       PRES   REMARKS
REEDSBURG      CLOUDY    44  40  86 E7        30.09F
BARABOO/DELLS  CLOUDY    44  39  85 E6        30.09F
LONE ROCK      NOT AVBL
MINERAL POINT  CLOUDY    48  43  81 E7        30.07S
MADISON        CLOUDY    47  41  80 NE9       30.09S
MIDDLETON      CLOUDY    47  42  82 E7        30.09F
WATERTOWN      CLOUDY    45  42  89 NE7       30.09S
MONROE         CLOUDY    45  41  87 NE7       30.07S
JANESVILLE     CLOUDY    48  41  76 E9        30.08F
$$

WIZ051-052-058>065-066-070>072-301800-
SOUTHEAST WISCONSIN

CITY           SKY/WX    TMP DP  RH WIND       PRES   REMARKS
MILWAUKEE      CLOUDY    52  43  71 N12       30.08R
WAUKESHA       CLOUDY    46  39  76 N6        30.10R
MILWAUKEE/TIMM CLOUDY    50  39  66 N5        30.09R
RACINE         CLOUDY    52  45  77 N15       30.09R
BURLINGTON     CLOUDY    48  40  73 N7        30.09R
KENOSHA        CLOUDY    54  45  71 N10G16    30.07S
FOND DU LAC    CLOUDY    47  40  76 NE7       30.10S
SHEBOYGAN      CLOUDY    50  42  74 N8        30.08F
WEST BEND      CLOUDY    46  37  71 N6        30.08S
JUNEAU         CLOUDY    45  40  85 NE8       30.11R
$$

LSZ147-162-301800-
LAKE SUPERIOR

STATION/POSITION TIME  TEMP    WIND        PRES    WAVE
                       AIR SEA DIR/SP/G            HT/PER
                 (UTC) (F)     (DEG/KT/KT) (MB)    (FT/S)
W MID LAKE BUOY  1550   45 49   90/ 10/ 12 1021.4F   2/ 6
DEVILS ISLAND    1600   45      80/ 16/ 17 1021.3F
SAXON HARBOR     1640   46      30/  9/ 11 1020.0F
$$

LMZ867-665-643>646-301800-
LAKE MICHIGAN

STATION/POSITION TIME  TEMP    WIND        PRES    WAVE
                       AIR SEA DIR/SP/G            HT/PER
                 (UTC) (F)     (DEG/KT/KT) (MB)    (FT/S)
CHAMBERS ISLAND  1600   47     330/ 11/ 15 1019.6S
S GREEN BAY BUOY 1600   47                 1020.3R
N MID LAKE BUOY  1550   48 58  360/ 14/ 16 1018.7S   3/ 5
NORTHPORT PIER   1600   47     360/ 12/ 17 1019.3S
KEWAUNEE LAKESHO 1600   46     360/  8/ 12 1018.1S
SHEBOYGAN LAKESH 1600   46 54  360/ 15/ 17 1019.4S
PORT WASHINGTON  1640   53      50/  9/ 12 1019.0F
ATWATER BUOY     1600   50     350/ 14/ 17 1019.2F
MILWAUKEE LAKESH 1600          360/ 12/ 16   N/A
S MID LAKE BUOY  1550   52 62   10/ 16/ 19 1017.1R   5/ 7
KENOSHA   LAKESH 1600          360/ 14/ 18 1017.9S
$$

TC  - TEMPERATURE IN CELSIUS
VSB - VISIBILITY IN STATUTE MILES
WCI - WIND CHILL INDEX
HX  - HEAT INDEX



USA.gov is the U.S. government's official web portal to all federal, state and local government web resources and services.